Starlink 5635

operational
NORAD ID: 55367 Int'l Des: 2023-013 Owner: SPXS Country: US Constellation: starlink
LEOCIRCULAR

Starlink 5635について

説明を読み込み中...

リアルタイム位置

3D地球を読み込み中...

次回通過

高度履歴

Altitude vs Time

uPlot chart will show altitude changes over time

軌道要素

1 55367U 23013AN 25307.55895258 .00001433 00000-0 12114-3 0 9992
2 55367 43.0043 252.8839 0001239 268.2416 91.8284 15.02536596152881
Epoch: Nov 3, 2025 • Age: 14 hours

現在のステータス

高度 567.5 km
速度 7.58 km/s
衛星直下点 -32.72°S, 109.65°E
打ち上げ日 Jan 26, 2023
運用期間 2.7 years
タイプ internet

技術仕様

分類 Payload
質量 305.00 kg
乾燥質量 290.00 kg
総質量 305.00 kg
長さ 0.20 m
直径 2.80 m
スパン 9.00 m
形状 Box + pan
製造者 SPXS
バスタイプ Starlink
フェーズステータス In Orbit
所有者/国 SPXS/US

大規模コンステレーション

Loading constellations...